Theta_e
348 347 340 338 337 337 336 335 334 328 321 316 315 316 316 317 318 319 319 320 320 319 318 319 319 318 315 312 311 310 311 310 311 310 310 311 311 311 312 319 325 326 326 328 329 331 333 334 334 335 335 336 336 336 336 335 335 335 335 336 336 336 336 336 337 336 337 336 336 336 336 335 335 335 334 332 330 329 327 326 326 326 327 327 326
348 346 340 338 337 337 336 335 333 326 319 315 316 315 315 315 315 315 316 317 317 317 316 315 314 312 311 311 311 310 311 311 310 310 311 311 311 311 312 318 324 326 327 330 332 333 335 335 336 336 336 336 336 336 336 336 335 335 335 335 336 336 336 336 336 336 337 336 336 336 336 336 335 334 333 331 330 328 327 326 325 324 326 326 326
348 345 339 339 337 337 336 336 333 326 319 315 316 315 315 315 315 315 316 317 316 315 313 312 311 311 311 311 311 310 311 311 311 311 312 312 311 312 312 318 324 327 329 332 334 335 335 335 335 336 336 336 336 335 336 335 334 334 335 335 336 336 336 336 336 336 336 336 336 336 336 335 334 333 332 331 328 327 326 326 323 322 323 324 325
348 344 338 339 337 337 336 335 334 327 320 315 315 315 315 315 316 316 316 316 315 313 312 311 311 311 311 311 311 311 311 312 312 312 312 312 312 312 313 318 323 328 331 332 335 335 336 335 335 336 336 336 336 335 336 335 334 335 335 335 336 336 336 336 336 336 335 336 336 335 335 334 332 331 329 327 324 323 322 323 322 321 320 320 320
348 342 338 338 337 337 336 336 334 329 321 316 315 315 315 316 316 316 316 315 314 313 312 311 311 311 311 311 311 311 312 313 313 313 313 312 312 312 313 317 323 329 332 332 335 336 336 336 336 336 336 337 336 336 336 336 335 335 335 336 336 336 336 336 336 336 334 334 333 332 331 328 327 326 325 324 320 319 318 319 319 318 317 316 314
347 340 338 337 337 336 335 336 334 330 325 319 316 315 315 316 316 315 315 314 314 313 311 311 311 311 311 311 311 311 312 312 313 313 313 312 312 311 313 317 321 328 331 332 334 335 336 336 336 336 336 336 336 336 336 336 336 336 336 336 336 336 335 335 335 333 332 331 329 326 323 320 320 320 322 321 318 316 314 316 317 316 314 313 312
344 339 337 336 337 336 335 336 335 331 327 321 317 315 314 315 316 315 315 315 314 313 312 311 311 311 311 311 311 312 312 312 313 314 313 313 312 311 313 316 319 325 330 332 333 334 335 336 336 336 336 336 335 335 335 335 336 336 336 335 335 335 335 335 334 333 333 331 326 322 320 319 316 314 315 315 316 315 313 313 312 312 311 311 311
342 338 336 336 336 335 335 336 335 332 328 323 318 316 314 314 315 315 315 315 315 314 313 311 312 312 311 311 312 311 312 312 313 314 314 313 312 311 312 315 318 323 328 330 331 332 332 332 333 334 334 334 334 333 334 334 335 335 335 334 332 330 330 331 331 331 329 325 319 317 317 315 313 311 310 312 313 312 315 316 313 312 309 310 311
341 338 336 336 336 335 335 336 336 333 329 324 319 317 315 314 313 314 314 315 315 315 313 313 312 312 312 311 311 312 312 312 313 313 314 314 313 312 312 315 319 322 325 327 328 329 329 329 330 330 331 331 331 331 331 332 332 332 331 330 325 323 323 323 323 322 319 316 314 313 312 311 309 310 309 312 314 315 318 318 319 319 316 316 319
341 338 337 336 336 335 336 337 337 334 331 326 322 319 318 317 315 314 313 314 315 315 315 314 313 312 312 311 312 312 312 312 313 313 314 314 313 312 312 313 318 322 324 325 327 327 327 327 328 328 329 329 329 329 328 327 325 323 323 322 320 319 318 316 315 314 313 312 311 309 309 309 308 313 317 318 322 323 322 321 324 325 323 324 325
340 338 336 336 336 335 336 338 337 335 332 329 325 323 324 323 321 319 316 314 313 314 315 314 314 313 312 312 312 312 312 313 312 313 313 313 312 312 311 312 316 321 323 325 326 326 326 326 327 327 327 326 327 326 324 321 320 319 319 319 318 316 315 314 313 312 312 311 310 309 308 310 308 314 318 321 325 324 323 324 327 325 325 324 322
339 338 336 336 335 335 336 337 337 336 333 330 326 326 329 329 327 325 322 319 316 314 314 314 314 313 313 313 312 312 312 313 313 312 312 313 312 312 311 312 316 320 323 325 325 325 326 326 327 326 325 324 323 322 320 320 321 322 320 318 316 314 313 312 312 311 311 309 309 309 308 310 309 311 316 321 324 323 322 324 323 324 325 322 318
339 337 336 335 334 334 335 337 338 337 335 331 327 328 331 331 330 329 328 326 323 320 316 315 314 314 314 314 313 312 312 313 313 312 312 313 312 312 311 311 314 319 323 324 325 325 326 326 326 326 323 320 320 320 322 323 324 325 324 320 317 314 311 310 311 310 310 309 308 309 309 310 310 314 321 325 324 322 322 319 317 319 320 319 319
339 336 335 334 333 334 335 338 338 338 336 333 328 328 330 332 332 331 331 330 329 327 323 319 316 315 314 314 314 313 313 312 312 313 313 314 314 313 311 311 312 318 322 324 324 325 326 326 325 323 320 319 322 324 325 326 326 326 326 322 317 313 310 309 310 310 309 309 309 309 309 310 312 317 324 327 326 324 321 315 312 313 312 313 315
339 336 334 334 333 334 336 338 339 338 337 335 331 328 328 330 332 333 332 332 332 331 329 326 322 319 316 315 314 314 313 312 312 313 313 314 315 314 311 311 311 316 320 323 324 324 325 324 323 321 320 322 325 326 326 327 327 327 326 323 317 311 309 309 309 309 309 309 309 309 309 311 312 317 322 322 322 320 315 311 310 310 310 310 310
337 335 333 334 334 335 337 338 339 339 338 337 335 332 328 327 330 332 333 333 333 333 332 330 327 324 321 318 316 315 314 315 314 312 313 314 315 315 312 310 310 313 318 322 323 323 323 323 322 321 322 325 326 327 327 327 328 327 325 322 317 311 308 309 309 309 309 309 309 309 310 311 312 313 316 315 313 312 310 309 310 309 309 309 309
336 334 333 334 335 336 337 339 340 339 339 338 338 336 334 331 330 331 332 333 333 333 332 331 329 327 327 324 321 317 316 319 318 313 312 314 315 315 314 310 310 311 315 320 322 322 322 321 321 322 324 327 327 327 327 327 327 327 324 321 317 310 308 308 309 309 309 309 309 310 310 311 311 311 311 311 311 311 311 310 310 310 310 310 310
336 333 332 333 335 336 337 339 339 339 339 338 338 338 337 336 334 333 331 332 333 333 333 332 329 327 329 328 327 323 320 321 319 317 315 315 316 316 315 311 309 310 313 317 320 321 321 319 321 323 326 327 327 327 327 328 327 326 323 320 317 311 308 308 308 309 309 309 310 310 311 311 311 311 312 312 311 311 311 311 310 310 310 310 310
335 333 332 332 333 335 336 337 338 338 338 338 339 338 338 338 337 335 331 331 333 334 333 332 329 327 329 330 332 329 326 324 321 321 319 317 318 317 316 312 309 309 311 315 318 321 320 319 321 324 327 327 326 326 327 328 326 324 323 321 318 313 309 309 309 309 309 309 309 310 310 311 311 311 311 311 311 310 311 310 310 310 310 310 310
334 332 332 331 332 334 335 337 337 338 338 338 339 339 339 339 338 337 331 330 332 334 334 333 330 327 328 332 335 333 331 330 325 325 323 321 322 319 317 314 311 309 310 314 318 320 320 319 320 324 327 327 326 326 328 328 326 324 323 321 320 316 312 311 310 310 310 309 309 309 309 310 310 311 310 310 310 310 310 310 310 309 310 310 310
333 331 331 331 332 334 334 336 338 338 338 339 339 339 339 339 339 337 333 331 332 334 334 333 330 327 330 334 335 334 333 331 327 326 325 324 324 322 319 316 314 310 309 313 317 321 322 320 320 324 327 326 326 326 326 326 325 323 323 322 321 319 317 315 313 312 311 311 311 311 310 309 309 309 309 309 309 309 309 309 309 309 309 309 309
331 331 331 331 331 332 333 334 335 336 337 338 338 338 339 339 339 338 334 332 332 335 334 332 330 328 332 335 335 334 333 331 327 327 327 325 324 323 320 317 315 312 309 313 318 322 325 323 320 323 325 326 327 326 325 325 324 323 322 322 322 322 321 319 318 316 314 313 313 312 311 310 309 309 308 308 308 308 309 309 309 309 309 308 309
330 330 330 330 330 330 330 331 332 333 334 335 335 336 336 337 338 338 335 333 333 334 334 333 331 331 332 335 334 333 334 332 327 328 329 327 326 323 321 319 317 313 311 314 318 323 327 326 323 323 324 326 328 327 326 325 324 323 322 322 323 325 325 324 322 320 319 317 316 314 312 311 310 309 309 308 308 308 308 308 308 308 308 308 308
329 329 329 330 330 329 330 331 331 331 331 331 331 332 333 334 337 337 335 333 333 334 334 332 332 332 333 334 333 332 334 331 328 329 330 329 328 324 321 321 319 315 311 314 319 325 329 329 326 323 324 325 328 328 327 325 323 323 323 323 324 326 327 327 326 324 323 322 320 317 315 313 312 310 310 309 308 308 308 307 307 307 307 307 307
329 328 329 330 330 330 331 332 332 330 328 327 327 328 329 331 335 336 335 333 333 334 334 332 331 332 333 334 333 332 331 327 327 330 330 330 329 326 322 321 321 317 313 314 320 327 330 330 328 325 324 325 327 329 328 325 323 323 324 323 325 327 328 327 327 327 325 324 322 320 318 316 314 312 310 309 308 308 307 307 306 306 306 306 306
330 329 329 330 330 330 331 331 331 328 325 325 324 325 325 328 331 333 333 332 333 334 334 332 331 332 334 335 333 331 329 325 326 328 329 331 330 328 324 321 322 320 315 315 321 328 331 331 329 326 325 325 327 329 328 326 323 323 324 325 326 328 328 327 327 327 326 325 324 322 320 318 316 313 312 310 309 308 307 307 306 306 305 305 305
333 330 329 331 331 330 330 330 330 327 326 326 326 325 325 325 327 329 330 331 333 334 334 332 330 332 335 336 334 332 329 327 326 325 327 329 329 328 326 323 324 323 319 316 320 328 331 331 330 327 325 325 327 329 329 326 324 324 325 327 328 328 329 328 327 327 326 325 324 322 321 320 317 315 313 311 310 308 307 306 306 305 305 305 305
337 333 330 331 331 329 329 330 330 329 328 329 327 326 326 325 324 326 328 329 331 332 332 330 329 332 336 336 335 333 331 329 328 326 326 326 324 326 327 325 324 325 323 318 320 328 331 331 331 329 325 325 328 329 329 327 326 325 327 329 329 329 329 328 327 327 326 325 324 322 321 320 318 316 314 312 309 308 307 306 305 305 305 305 305
338 336 332 330 331 331 329 330 330 330 330 330 329 329 327 326 324 324 325 327 328 328 330 328 328 333 336 336 335 334 332 330 329 328 328 327 323 323 326 326 325 325 326 322 319 325 331 331 330 329 326 327 328 327 327 328 327 327 328 329 330 330 329 329 328 327 327 325 325 324 322 320 319 317 315 313 310 308 306 305 305 305 305 305 305
338 337 334 332 331 332 330 330 330 329 330 330 330 330 330 329 327 324 324 325 325 325 328 327 327 333 337 336 334 333 332 330 330 329 329 328 325 324 325 327 325 325 327 326 321 321 326 330 330 329 328 328 327 325 326 327 328 329 329 329 329 329 328 328 328 328 327 326 326 325 324 322 320 318 316 314 311 309 307 305 305 305 305 305 305
339 338 336 333 332 332 331 330 330 329 330 331 330 331 331 331 330 327 325 324 323 323 326 326 327 333 336 336 334 332 331 331 331 330 330 329 327 326 326 327 326 325 326 327 325 320 321 326 329 329 329 327 326 326 327 328 329 329 329 328 328 328 328 328 328 328 328 327 326 325 324 324 322 319 316 315 312 309 307 305 305 305 305 305 304
339 339 338 336 333 332 331 331 331 330 330 330 330 331 331 331 331 329 327 325 323 323 324 324 327 332 336 336 335 332 330 331 331 330 331 329 328 328 327 328 327 325 325 327 327 324 322 325 328 328 327 326 327 328 328 329 329 329 328 328 328 329 329 329 328 328 328 327 326 324 324 324 322 319 315 313 311 308 306 305 304 304 305 306 307
338 339 340 338 336 334 332 331 331 331 330 330 330 331 331 331 331 330 329 327 324 322 321 322 326 331 334 335 335 333 330 330 330 330 331 330 329 329 326 325 325 325 325 326 327 326 325 326 327 327 327 328 329 329 328 327 328 329 328 328 329 329 329 329 328 328 328 328 326 324 324 324 322 319 315 312 310 307 306 305 305 307 310 312 315
338 339 340 338 337 336 333 331 330 330 330 329 330 330 330 330 330 330 330 328 326 323 320 321 325 330 332 333 334 332 330 330 330 329 330 330 330 328 323 320 320 322 323 326 327 327 327 327 327 327 328 328 328 328 327 326 328 329 328 329 330 330 329 329 328 328 328 328 327 325 324 324 322 318 313 311 309 307 307 308 312 316 318 320 322
339 339 339 338 337 336 335 333 330 330 330 330 330 330 330 330 330 330 330 329 327 325 322 321 325 328 330 332 333 331 330 331 330 329 329 330 330 326 322 319 319 321 322 325 327 328 328 328 327 328 328 327 328 328 327 328 329 329 329 329 329 330 329 328 328 328 328 329 327 326 325 324 323 318 312 309 309 310 312 315 319 321 323 324 324
339 339 339 338 338 337 336 335 332 331 330 330 331 330 330 330 330 330 330 330 328 327 325 323 325 328 330 331 332 331 331 331 330 329 329 330 330 326 323 321 320 322 323 325 327 328 328 328 327 327 326 326 327 328 328 329 330 330 329 329 329 329 329 328 328 328 328 329 328 327 326 324 323 317 310 310 312 314 317 320 322 323 323 324 324
338 338 338 338 339 338 336 335 334 334 332 331 332 331 331 331 331 331 331 331 329 329 328 325 325 327 330 331 332 332 331 331 331 329 329 330 330 327 325 323 323 324 325 325 327 327 327 327 327 327 327 326 327 328 329 330 330 330 329 329 329 329 329 328 328 328 329 329 328 328 326 325 322 315 311 313 314 316 319 321 322 322 323 324 325
338 337 338 338 340 338 336 335 335 335 334 333 333 332 331 331 331 332 332 331 330 329 328 327 325 327 331 332 332 332 332 332 331 330 329 330 330 329 327 325 326 327 327 326 326 327 327 327 327 327 328 328 328 329 330 330 330 330 329 329 329 329 329 329 329 329 329 329 328 327 326 325 323 316 313 315 316 318 320 321 322 322 323 324 326
339 338 339 340 340 339 337 335 335 335 335 335 335 333 332 331 332 332 332 332 331 329 329 328 326 327 331 332 332 332 332 332 331 330 329 330 330 330 329 327 328 329 329 328 327 328 328 328 328 328 329 330 330 330 330 330 330 330 330 329 329 329 329 329 329 329 329 329 328 327 326 325 324 318 315 316 317 319 321 321 322 322 323 325 326
339 339 340 340 341 339 338 336 336 336 336 336 336 335 333 332 332 333 333 333 332 330 329 329 329 329 331 332 332 332 332 332 331 329 329 330 330 331 330 329 329 330 329 329 328 328 328 329 329 329 330 331 332 331 331 331 330 330 330 329 329 329 329 329 328 328 328 328 328 328 327 325 325 321 315 316 318 320 321 321 322 323 324 325 326
339 339 340 341 341 339 339 338 337 337 336 336 336 336 335 334 333 333 334 334 334 332 331 331 331 331 332 332 332 332 331 330 330 330 329 330 330 331 331 331 331 330 330 330 330 329 329 329 330 330 331 332 331 331 331 331 330 330 330 329 329 328 328 327 327 328 328 328 328 328 327 326 326 322 317 318 319 320 321 322 323 324 325 325 325
339 339 340 341 341 340 340 338 338 337 336 337 337 337 336 336 335 335 335 335 334 334 332 332 332 332 332 332 331 332 331 331 330 330 329 329 330 330 331 332 332 330 330 330 330 330 330 330 330 331 331 331 331 330 330 330 330 330 329 329 328 327 327 326 326 326 325 326 328 328 328 327 326 322 319 319 319 320 322 324 324 325 325 324 323
339 339 339 340 340 338 336 335 336 337 337 337 337 337 337 337 336 335 336 336 335 334 333 332 333 332 332 333 332 331 332 331 331 331 329 329 329 330 331 332 331 331 330 330 331 330 330 330 330 331 330 330 331 330 330 330 330 330 329 328 327 326 326 326 325 324 323 325 326 327 328 327 326 324 322 321 319 320 323 324 324 324 324 323 323
338 336 335 335 335 334 333 332 333 336 338 337 337 337 337 337 337 337 337 336 335 333 332 332 333 333 333 333 332 331 332 331 331 331 330 329 329 330 332 331 330 330 330 330 330 329 329 330 330 331 330 330 330 330 330 330 330 330 329 327 326 325 326 326 325 324 324 325 325 326 327 327 326 326 325 323 321 322 324 324 324 324 324 324 323
334 332 331 333 334 332 330 329 329 334 337 337 336 336 336 337 337 337 337 336 335 333 332 333 333 333 333 332 331 331 331 331 331 331 330 330 329 330 331 330 330 330 330 330 330 329 329 329 330 330 330 329 330 330 330 330 330 330 328 326 325 325 325 325 325 325 325 325 325 326 326 326 326 327 326 324 322 323 324 325 324 324 324 323 322
333 331 330 331 331 329 328 327 328 332 336 337 336 336 336 336 336 337 336 335 335 334 334 334 333 332 332 332 331 331 330 331 331 331 331 330 329 330 331 330 330 330 330 332 331 329 329 329 329 330 330 330 330 330 330 329 330 329 328 327 326 326 326 325 325 325 325 325 326 325 325 325 326 327 326 324 323 323 323 325 325 325 324 321 321
333 330 328 326 324 326 328 328 329 330 333 335 335 335 335 335 336 336 336 335 334 334 334 334 334 333 332 332 331 331 331 331 331 331 331 330 329 330 329 329 329 330 331 332 331 329 329 329 329 329 330 330 330 330 329 329 329 330 329 328 327 327 326 326 326 325 324 325 325 325 325 326 326 326 325 324 324 323 324 325 325 325 323 320 321
333 329 327 325 322 323 326 327 328 328 329 330 331 332 332 333 334 335 335 334 334 334 334 333 333 333 332 332 332 331 332 331 331 331 331 330 329 330 329 328 328 329 330 331 329 329 329 329 328 329 330 331 330 330 329 329 329 329 329 328 327 327 327 327 327 326 324 324 324 325 326 326 326 326 325 324 324 323 324 325 324 325 323 319 321
334 330 329 328 325 325 325 326 327 327 326 326 327 330 331 332 333 333 331 331 332 332 333 333 332 332 332 331 332 332 332 331 330 331 331 330 329 330 329 328 327 327 329 330 329 329 329 329 328 329 330 330 330 329 329 328 329 329 329 328 327 327 327 327 327 327 325 323 324 325 325 325 325 325 324 324 324 324 325 325 324 325 323 320 320
334 333 332 331 329 327 327 329 330 330 330 330 330 331 332 333 333 333 329 326 328 330 333 333 332 332 331 330 331 331 331 330 330 331 330 330 329 329 329 329 328 328 329 330 329 329 329 328 328 329 329 329 329 328 328 329 329 329 329 328 327 326 327 327 327 327 326 324 324 324 325 325 324 324 324 324 324 324 325 324 324 324 324 323 321
332 333 333 333 332 329 328 330 330 331 332 332 333 334 334 333 333 333 331 326 325 330 332 333 332 332 331 331 331 331 331 330 330 330 330 329 328 328 329 329 329 329 329 330 330 329 328 328 328 328 329 329 328 327 328 329 329 329 329 329 327 326 326 326 326 326 325 325 324 324 324 324 324 324 324 324 324 324 324 324 324 324 324 324 323
Wind_Speed
23 26 25 25 24 22 20 19 18 17 16 16 17 17 18 18 18 18 17 16 15 14 13 13 13 12 12 12 12 11 11 10 10 9 9 9 12 15 18 20 22 23 23 23 22 20 19 17 16 17 16 16 17 17 18 18 18 17 16 16 16 16 16 16 15 15 16 16 16 16 15 15 15 14 14 14 13 13 12 12 13 12 12 12 10
26 27 26 26 24 23 20 19 17 16 16 16 17 18 18 18 18 17 17 16 15 14 14 14 13 13 13 13 13 12 12 11 11 10 10 11 13 15 18 20 23 25 25 24 23 21 20 18 18 18 18 18 18 19 19 19 18 17 16 17 16 16 16 15 15 15 16 16 16 16 16 15 15 14 14 13 11 11 11 11 11 12 13 12 11
28 27 27 26 25 23 21 20 18 16 16 17 18 18 18 18 18 17 17 17 16 15 14 14 14 14 14 14 13 12 12 11 11 10 11 12 13 15 18 20 24 26 26 25 23 22 20 19 19 19 19 19 20 19 19 18 18 17 17 17 16 16 15 15 14 14 15 15 16 16 16 15 14 13 12 12 11 10 9 9 9 9 11 11 11
28 28 28 27 25 23 22 20 18 17 16 17 18 18 18 18 18 18 18 17 16 15 14 14 14 15 14 13 13 13 12 12 11 11 12 13 13 15 18 20 24 26 26 25 23 22 21 20 20 20 20 20 20 20 19 18 18 17 17 17 16 15 15 14 14 14 14 14 14 14 14 13 12 11 10 8 7 7 8 8 7 7 8 8 7
29 29 28 28 25 24 22 21 19 18 17 17 17 17 17 17 18 18 18 17 16 15 14 14 14 14 14 13 13 13 13 12 11 11 12 13 13 15 17 20 23 24 25 25 22 21 20 21 21 21 20 20 20 20 20 19 18 18 18 17 16 15 14 14 13 13 13 12 11 10 10 10 8 8 7 5 5 5 5 5 5 5 5 5 5
29 29 28 27 26 24 23 22 20 19 18 17 17 16 16 17 18 18 18 17 16 15 14 14 14 14 14 13 13 13 13 12 11 12 12 12 12 14 16 19 21 22 24 25 23 21 20 20 21 21 20 19 19 19 19 19 18 17 17 16 15 14 13 13 12 11 11 10 8 8 7 6 5 6 5 3 3 4 4 4 4 4 4 5 6
28 28 27 27 26 25 24 23 22 20 19 18 17 16 16 16 17 18 18 17 16 16 15 15 14 14 14 13 13 13 12 12 12 12 12 12 12 14 15 17 19 20 22 23 22 22 21 20 20 19 18 17 16 17 17 17 17 16 16 14 13 12 11 11 10 9 8 7 7 7 6 5 4 5 5 4 4 5 6 6 6 6 6 7 7
27 27 27 27 26 25 25 24 22 20 19 18 16 16 16 16 17 18 17 17 16 16 15 15 15 14 14 13 13 12 12 12 12 12 11 12 13 13 14 15 17 19 20 21 22 21 20 19 18 17 16 15 15 16 15 15 15 14 14 13 13 12 11 10 9 8 6 6 7 6 6 6 4 5 6 7 9 11 11 11 11 11 11 10 10
25 26 27 27 26 26 25 25 22 20 19 18 17 16 16 16 16 16 16 16 16 15 16 15 15 14 14 13 13 12 12 11 11 12 11 11 13 13 13 15 16 17 18 20 21 20 19 18 17 16 15 14 15 15 15 14 14 13 13 13 13 12 12 11 9 8 7 7 8 7 7 7 6 6 8 10 13 16 16 15 16 15 15 14 14
24 25 26 26 26 26 26 25 23 21 20 19 18 17 17 16 15 15 16 16 16 15 15 15 15 14 14 13 13 12 12 11 11 11 11 11 13 13 12 14 15 16 18 19 20 19 18 17 16 14 13 12 14 15 15 14 14 15 15 14 13 12 11 10 9 8 7 9 9 9 9 8 8 11 12 13 15 17 17 18 18 16 16 16 16
24 25 26 26 26 26 26 25 24 22 21 21 19 18 17 15 15 15 15 15 15 15 14 14 14 14 14 13 13 13 12 11 11 11 11 11 12 12 12 13 15 16 17 18 18 18 17 16 15 13 11 10 12 15 15 15 16 16 16 14 13 11 10 10 9 9 9 10 10 10 10 9 11 13 15 15 16 17 18 18 18 17 17 16 16
27 26 26 27 27 26 27 26 25 23 21 21 19 18 16 15 14 14 14 14 14 13 13 13 14 14 13 13 13 13 12 11 11 10 10 11 12 12 12 12 14 16 17 18 18 17 16 15 13 11 9 10 14 16 16 17 17 17 16 15 14 13 11 10 10 10 11 11 12 12 11 11 12 14 16 16 17 19 19 17 18 18 18 16 15
27 27 27 27 27 27 27 27 25 23 21 20 19 18 16 15 14 14 14 13 12 12 12 12 13 13 13 13 13 13 12 11 11 11 10 10 12 13 12 12 13 16 17 18 18 17 15 14 12 10 9 12 16 17 17 17 17 17 16 16 16 16 14 13 12 12 13 13 13 13 11 11 14 15 16 16 17 19 18 17 18 18 17 16 16
27 28 28 28 28 28 27 27 26 24 22 20 19 18 17 15 14 14 13 12 11 11 11 11 11 11 12 12 12 12 12 12 12 11 10 10 12 13 13 12 13 15 17 18 17 16 14 13 11 9 10 15 17 16 16 16 16 16 17 18 17 17 16 15 15 15 15 14 13 12 11 12 14 15 15 16 17 17 17 17 17 17 16 17 17
26 28 28 28 28 28 27 27 26 25 23 20 19 18 16 15 14 13 12 12 11 10 10 10 9 9 10 10 10 11 12 12 13 12 11 10 11 13 14 13 13 14 16 17 17 16 14 12 10 8 10 15 16 15 15 15 16 16 17 18 18 17 17 17 17 17 15 15 14 12 11 13 15 15 15 15 16 17 17 16 16 16 16 16 17
26 28 27 27 27 27 27 26 26 24 23 21 19 17 15 14 13 13 12 11 10 10 9 9 9 8 8 9 9 10 11 12 13 12 11 11 11 13 14 14 13 14 16 17 17 15 13 11 10 9 9 12 14 14 14 14 15 17 17 18 18 18 18 17 18 17 16 14 14 12 11 13 14 15 16 15 16 16 16 16 16 16 16 16 16
26 27 27 26 26 26 26 26 25 24 23 21 20 17 15 15 14 13 12 12 11 10 9 8 9 9 8 8 8 8 10 11 12 12 12 11 11 12 14 15 14 14 16 17 17 15 13 11 10 9 9 10 12 12 12 14 15 16 17 18 18 17 17 17 17 17 16 14 13 11 11 12 12 13 14 14 15 15 15 15 15 15 15 15 15
26 27 27 26 25 25 25 25 24 24 23 22 20 17 16 16 16 15 14 13 12 10 9 8 9 9 8 8 7 7 9 10 11 12 12 12 11 11 13 16 15 15 17 18 18 16 14 12 10 9 8 9 10 11 12 14 15 15 16 17 17 16 17 16 16 16 15 14 13 11 10 10 11 12 12 13 14 14 14 14 14 14 14 14 14
25 27 26 25 25 24 24 24 24 24 23 22 20 18 17 17 17 16 15 13 11 10 9 8 8 9 8 8 7 7 8 8 9 11 11 11 12 11 13 16 16 15 17 18 18 18 15 13 11 9 8 9 9 10 12 13 13 15 15 16 16 16 16 16 16 16 15 13 12 11 11 11 11 12 12 13 13 13 13 13 13 13 12 13 12
25 26 25 25 24 24 24 23 24 24 24 22 20 19 18 17 17 16 14 13 11 10 9 8 9 9 8 9 9 9 9 9 9 10 11 11 12 11 12 15 16 16 17 19 19 19 17 14 12 10 8 8 9 10 11 11 11 14 14 15 16 16 16 15 15 15 14 13 13 12 12 12 12 12 12 12 11 11 11 11 11 11 11 11 11
25 25 24 24 24 24 24 23 24 24 23 22 21 20 18 17 16 15 14 13 12 10 10 10 10 10 10 10 11 10 10 10 10 10 10 11 11 11 12 14 16 16 18 20 21 20 18 16 13 10 9 8 9 10 10 9 10 12 13 13 14 15 15 15 15 14 13 13 13 13 13 12 12 11 11 10 9 9 9 9 10 10 10 10 10
26 25 23 24 24 24 23 24 24 23 23 22 21 20 19 18 17 16 15 14 13 12 11 11 12 12 12 12 12 11 10 11 10 10 10 11 11 11 12 13 15 16 18 21 22 22 20 17 14 11 9 8 9 10 9 8 9 10 11 12 12 13 14 15 15 15 14 13 13 13 12 12 11 11 10 9 9 8 8 9 9 9 9 8 8
25 24 24 24 24 24 24 24 24 23 22 20 20 20 20 19 18 18 17 16 15 14 13 13 14 14 13 14 12 11 11 11 10 10 10 10 10 12 13 14 15 16 19 22 23 23 21 18 15 12 9 7 7 8 8 7 8 9 10 10 10 11 13 14 15 15 14 13 13 12 11 11 10 10 9 9 8 8 8 8 8 8 8 8 7
25 25 25 25 25 25 24 24 23 22 21 20 20 21 21 20 19 19 18 17 16 15 15 14 15 14 14 14 13 12 11 10 11 10 10 11 11 12 14 15 15 16 20 24 25 24 21 19 16 13 10 7 5 6 7 6 6 7 8 8 9 10 12 13 13 14 14 13 13 12 11 10 9 8 8 8 8 8 8 8 7 7 7 7 6
26 26 26 26 26 26 25 24 22 21 20 20 20 21 21 21 20 20 19 17 16 16 15 15 16 15 15 14 13 13 11 11 13 13 12 11 11 11 13 15 15 16 19 24 26 24 22 19 17 14 11 8 5 4 5 4 5 5 6 7 8 9 11 12 12 13 13 13 13 11 9 8 7 7 7 7 7 7 7 7 7 6 6 6 6
27 27 27 26 27 27 26 24 21 20 19 19 20 20 21 20 20 20 20 19 18 16 16 16 16 15 15 14 14 14 12 12 13 14 13 12 11 10 12 15 16 16 19 24 26 25 22 20 17 15 12 9 7 5 4 3 3 4 5 6 7 9 10 11 11 12 12 12 11 10 8 7 6 5 5 5 5 6 6 6 6 6 6 6 6
27 27 28 27 27 28 25 22 21 20 20 20 20 21 20 19 19 20 20 20 19 17 16 17 16 16 16 15 15 14 12 12 12 12 13 12 11 11 11 14 17 17 18 23 26 25 23 21 18 16 13 11 9 6 4 3 2 3 4 5 6 7 8 9 10 10 10 10 9 9 8 7 5 3 3 3 4 5 5 5 5 5 5 6 6
25 27 29 28 28 27 24 22 21 21 21 21 21 21 20 19 19 19 19 20 19 18 17 17 17 17 18 16 15 14 13 12 10 10 11 12 12 12 12 13 17 18 19 22 25 26 24 21 19 17 14 12 11 8 5 3 2 2 2 3 5 6 6 7 9 9 8 8 8 9 8 8 6 4 2 2 3 4 5 5 5 5 5 6 5
23 26 27 27 26 25 24 23 23 22 22 22 21 21 20 18 19 19 19 18 18 18 17 18 18 18 19 18 16 15 13 11 10 10 10 11 12 13 14 13 16 19 20 21 24 26 25 22 20 18 15 14 12 9 6 4 3 2 0 2 4 5 6 7 7 7 6 7 7 8 7 7 6 5 3 1 2 4 5 5 5 5 5 5 5
22 24 25 25 24 23 24 24 24 23 23 22 22 21 20 19 19 19 18 18 18 19 19 19 19 19 20 19 17 15 13 11 10 10 10 11 12 14 14 14 15 18 20 21 22 25 26 24 21 18 16 15 13 10 7 5 4 2 1 2 3 4 5 6 6 5 5 5 5 6 6 6 6 5 4 2 1 4 5 5 5 5 5 5 5
22 23 23 22 22 22 23 24 24 24 23 23 22 22 21 20 19 19 18 18 18 18 20 20 19 19 20 19 17 15 13 12 11 10 11 12 13 13 15 16 16 18 20 22 22 23 25 24 22 19 17 15 13 10 8 7 5 3 1 2 3 4 5 6 5 4 4 4 5 5 5 5 5 4 3 2 1 3 4 5 5 5 6 6 7
20 20 20 21 21 21 22 24 24 24 24 23 23 23 22 21 20 19 18 18 17 17 19 20 20 19 19 19 17 15 14 13 12 11 12 12 13 13 15 16 16 18 20 22 23 23 24 25 23 20 17 15 13 11 10 8 6 3 1 1 3 4 4 5 4 3 3 4 4 5 5 5 4 3 2 1 0 2 3 5 6 7 7 8 10
17 17 18 19 19 19 21 24 24 25 24 23 24 24 24 22 21 19 18 17 17 17 18 20 20 19 19 19 18 16 15 14 13 13 14 13 12 13 14 15 16 18 20 22 23 24 24 24 23 20 18 16 14 12 11 9 7 3 1 1 2 2 3 3 3 3 3 3 3 4 4 4 4 3 1 0 1 2 5 7 8 9 10 11 11
19 18 18 19 18 18 20 23 24 25 24 24 24 24 24 24 22 20 19 18 17 16 17 18 20 19 19 19 19 17 16 15 14 14 15 13 13 13 13 14 16 19 21 23 24 23 24 23 22 20 18 16 14 13 11 9 7 4 1 1 1 2 2 2 3 3 3 2 2 3 3 4 4 3 2 1 3 5 8 10 11 11 11 11 11
21 21 19 19 18 17 19 23 25 25 25 24 24 23 24 24 23 21 20 19 18 17 16 18 20 19 19 19 18 17 16 16 15 15 15 14 13 12 12 13 16 19 21 24 25 23 22 21 20 19 18 17 15 13 11 9 6 4 2 2 2 2 2 3 4 3 3 3 2 2 2 2 3 3 0 3 5 8 10 10 11 10 10 9 9
21 20 20 19 18 17 18 21 24 25 26 25 24 23 23 24 24 22 20 20 19 17 16 17 20 20 19 18 18 17 17 17 16 16 16 15 13 12 13 14 16 19 21 23 25 24 22 21 19 18 17 17 15 13 11 9 7 5 4 4 4 4 4 5 5 4 3 4 4 2 1 1 2 1 3 5 7 9 9 9 9 8 7 6 6
20 20 19 19 18 18 18 20 22 24 25 25 24 24 23 24 24 22 21 21 20 19 17 18 20 20 19 19 18 18 18 17 17 17 17 15 14 14 15 15 17 20 21 23 24 23 22 20 19 17 15 15 14 12 11 9 8 7 6 6 6 6 5 5 5 5 5 6 6 4 3 2 1 2 5 6 7 8 8 8 7 5 4 3 3
19 20 19 19 18 18 19 20 21 22 23 24 24 24 24 24 23 23 22 22 22 20 20 20 20 21 20 20 20 18 18 18 18 18 18 16 15 16 17 18 19 20 20 21 21 21 20 19 18 17 15 14 13 12 10 10 9 9 8 8 7 7 6 6 5 6 6 6 5 5 4 2 2 4 7 6 7 7 7 6 4 3 2 2 1
20 20 20 20 20 20 20 21 21 21 23 24 24 24 25 25 25 25 24 24 24 22 21 20 20 20 21 21 21 20 19 19 19 19 20 19 17 18 19 19 20 20 20 20 20 21 20 19 18 18 16 14 12 11 11 10 10 10 9 9 8 7 6 6 6 7 6 5 5 5 4 3 3 5 7 6 7 7 6 5 4 2 1 1 0
22 21 22 22 22 21 22 22 22 21 22 24 25 25 26 26 27 26 26 26 26 25 23 21 20 21 22 22 22 21 20 21 21 21 21 21 20 20 22 21 21 20 20 20 20 21 20 19 18 18 16 14 12 11 11 10 11 11 10 10 9 8 8 8 8 7 6 6 6 6 5 5 4 5 7 6 7 7 6 5 4 3 2 1 0
24 23 23 23 23 22 22 22 20 20 22 24 26 27 28 28 28 28 28 27 27 27 24 22 22 22 23 23 23 22 21 22 23 22 22 23 22 23 24 23 21 21 20 19 19 18 18 17 17 16 15 14 12 12 12 12 12 11 11 10 9 9 10 9 9 9 7 6 8 7 6 6 6 6 7 7 7 6 5 4 4 3 2 2 1
25 23 23 24 23 23 23 21 19 19 21 24 26 28 28 27 28 27 27 28 28 28 26 24 24 24 23 24 24 23 23 23 24 23 23 24 25 25 25 25 23 21 20 18 18 17 17 17 17 16 14 14 12 12 13 13 13 13 12 11 11 10 9 8 9 9 9 8 8 8 8 8 7 7 7 7 6 5 5 4 3 3 2 2 2
25 24 23 23 21 19 18 17 17 19 22 24 26 27 27 26 27 27 27 29 30 29 28 26 25 25 24 24 24 24 24 23 24 24 24 25 26 26 27 25 22 21 20 19 18 18 18 19 18 16 15 14 13 13 13 13 13 13 13 11 11 10 8 9 10 9 9 8 8 8 9 10 9 8 7 6 5 5 5 4 3 2 2 2 2
21 18 16 16 13 10 12 13 14 18 22 24 25 26 25 25 26 27 28 29 30 30 29 28 26 24 24 24 24 24 24 23 23 24 25 25 26 27 28 24 19 20 20 19 19 18 19 19 18 17 16 15 15 14 14 15 14 14 12 10 10 10 8 8 10 9 9 9 8 8 9 11 10 8 8 6 5 6 5 4 3 1 2 2 2
13 16 19 15 12 11 12 12 14 19 22 23 24 25 24 24 25 26 28 29 29 28 27 28 26 23 24 25 25 24 24 23 23 24 26 25 26 28 27 22 20 21 21 21 20 19 20 20 18 17 16 15 15 15 16 17 16 13 12 8 7 8 9 9 8 8 8 8 9 10 10 11 10 9 9 8 7 6 5 4 3 1 1 1 2
13 16 15 8 7 13 14 12 15 20 22 23 23 23 24 25 25 26 28 29 29 29 27 28 25 22 24 25 24 24 23 24 23 24 26 26 26 28 26 22 21 22 22 22 21 20 20 20 19 18 17 16 15 15 16 17 17 15 14 10 6 5 7 9 8 7 8 8 9 11 12 12 11 11 11 9 8 7 5 5 4 2 1 1 2
10 12 16 14 10 13 16 14 15 19 21 22 23 23 23 24 26 27 29 29 30 30 29 28 25 22 23 23 22 22 22 23 23 24 26 26 27 27 25 23 22 22 23 23 22 21 20 19 18 17 17 16 15 15 15 16 18 18 16 13 9 5 4 5 6 7 9 10 11 11 12 12 12 12 12 11 9 7 6 5 4 3 1 2 3
10 11 12 11 8 8 9 10 11 14 17 19 20 22 21 21 23 26 28 30 32 31 28 26 24 21 22 21 20 20 21 22 24 25 27 27 27 27 25 23 22 22 23 22 22 21 19 18 18 17 17 16 14 14 14 15 17 17 16 14 12 9 6 3 2 5 6 8 12 12 11 12 12 12 13 11 10 8 7 6 4 3 2 3 4
9 7 10 12 5 2 4 6 8 11 14 17 19 20 20 18 21 22 24 28 32 31 28 25 21 18 19 19 20 20 20 22 24 25 27 28 28 28 26 25 24 23 23 23 23 21 19 19 19 18 17 15 14 14 14 14 14 15 15 14 13 11 8 5 4 5 5 6 10 12 13 13 13 13 13 12 11 9 8 6 5 4 4 3 4
5 4 6 7 10 10 9 10 13 15 17 19 19 19 19 19 20 21 20 22 27 30 28 24 19 17 18 19 21 20 20 22 24 26 27 27 27 27 26 25 25 23 23 24 24 22 20 19 18 17 16 15 15 15 15 13 12 13 14 13 12 11 9 7 6 7 7 6 7 10 15 16 14 14 14 12 12 10 8 7 6 6 6 5 5
2 3 6 7 10 12 13 14 16 18 19 19 19 19 19 20 21 23 23 21 21 26 27 23 19 18 19 20 20 21 21 22 24 26 27 27 26 25 24 24 25 24 23 25 25 22 20 19 18 18 17 16 15 15 14 14 12 13 14 13 11 10 8 6 4 4 6 7 7 8 13 16 15 14 14 12 12 10 8 7 7 8 7 6 5
Wind_Direction
170 172 172 164 166 167 167 166 164 166 164 165 164 164 164 165 168 172 175 175 174 170 164 159 158 155 150 143 137 132 123 115 108 103 101 90 80 81 91 102 105 107 111 112 110 107 104 101 99 102 106 107 111 112 107 108 111 113 112 109 108 108 108 107 107 105 104 103 102 101 101 101 100 99 97 92 89 87 86 85 84 82 80 75 70
167 172 170 166 167 166 166 166 166 166 163 164 162 163 163 164 167 169 172 170 167 163 159 157 154 151 146 142 139 133 124 119 115 109 98 86 81 82 93 104 108 111 113 112 108 105 103 102 101 104 108 109 108 107 106 108 110 111 108 106 107 107 106 106 106 105 102 101 101 101 98 97 97 98 94 89 86 86 88 88 87 85 83 81 78
165 170 169 167 167 166 166 165 166 165 163 162 161 162 163 165 167 168 169 165 162 159 159 155 152 149 145 143 139 133 129 126 121 110 97 86 83 85 97 107 111 113 113 111 107 105 104 104 105 106 107 107 105 105 106 108 110 108 106 105 105 105 104 104 103 101 100 99 99 99 97 95 93 91 86 84 82 83 87 87 89 93 93 93 90
165 168 168 168 167 167 166 166 166 165 163 161 162 163 165 168 167 166 165 161 159 158 159 154 152 151 148 146 140 138 136 132 124 110 98 89 84 89 101 111 115 115 114 113 108 105 104 105 106 107 106 104 104 105 105 106 107 106 104 103 102 103 103 102 100 98 99 98 98 99 98 95 92 85 80 83 91 93 96 94 97 104 102 104 101
165 168 169 168 167 168 167 167 167 166 163 162 163 164 165 167 166 165 163 161 159 158 157 155 155 154 152 148 144 144 140 135 126 112 100 94 87 91 102 113 118 117 117 116 112 108 105 106 107 107 107 105 106 106 105 104 104 103 102 101 100 100 100 99 97 94 93 92 91 93 94 93 95 97 91 89 105 116 123 121 116 110 108 107 99
167 170 171 168 169 169 169 168 168 167 164 162 163 164 164 165 166 166 164 161 159 158 158 158 159 158 155 151 149 147 143 138 128 114 103 100 92 93 102 112 120 119 120 122 120 118 112 110 110 110 110 109 111 110 109 106 103 102 100 101 102 103 102 100 97 92 87 83 76 73 72 75 87 104 115 118 99 106 124 131 124 112 109 95 78
169 172 171 170 171 171 171 170 169 168 164 163 164 164 163 163 166 168 166 162 159 160 161 163 164 162 157 154 153 149 147 141 130 118 109 108 101 96 101 109 120 121 122 126 127 127 123 119 117 117 117 116 116 113 110 107 104 103 101 100 101 101 101 100 96 88 76 63 56 56 48 52 61 72 98 122 93 87 96 99 101 97 92 85 74
172 173 172 173 174 174 174 172 170 167 164 164 165 165 163 164 167 169 167 161 161 162 164 167 167 164 158 158 157 152 150 142 132 124 116 114 108 101 103 108 118 124 125 128 131 133 131 128 126 126 127 125 120 113 108 107 107 107 105 100 95 93 91 90 86 79 64 46 41 42 44 56 59 58 78 94 85 79 84 88 89 87 83 83 81
175 175 175 176 176 176 175 174 171 166 164 166 167 165 164 164 165 166 164 161 162 165 168 169 167 165 162 162 160 157 153 145 138 130 122 113 111 107 105 110 118 126 127 128 130 133 134 131 131 131 132 130 120 113 110 111 111 107 104 101 97 94 91 88 85 79 65 52 45 49 64 71 73 82 85 87 84 78 80 84 85 85 83 84 86
177 177 178 179 178 178 176 175 172 167 167 167 168 166 166 164 159 157 157 160 164 168 170 169 167 166 166 165 164 161 157 152 145 135 126 112 112 112 107 112 120 127 128 128 129 131 133 133 134 135 135 131 118 111 109 108 104 99 97 97 96 95 93 92 88 81 70 61 61 69 80 82 78 84 89 89 89 88 88 87 87 89 89 88 91
178 179 181 181 180 180 177 177 175 170 169 169 170 169 169 164 157 151 151 158 165 170 169 168 168 168 169 168 166 165 162 159 153 141 131 117 114 117 113 116 123 129 130 129 130 133 135 136 137 137 136 123 107 104 104 99 93 89 89 89 88 89 89 89 86 80 72 67 74 80 83 86 84 84 90 92 93 99 99 95 95 95 93 93 96
180 182 182 183 183 182 180 179 177 173 173 173 173 172 170 166 158 152 152 157 162 164 164 167 167 169 170 169 169 168 167 165 159 149 139 127 122 123 121 121 127 131 132 131 132 135 137 138 138 136 130 108 101 102 100 93 87 82 80 79 76 73 73 77 79 75 70 72 80 83 83 86 89 89 93 92 93 98 98 97 100 98 94 95 98
183 184 184 186 186 185 183 180 178 177 177 177 177 175 172 168 161 157 159 160 158 158 161 164 166 170 172 171 171 170 171 169 163 156 150 140 129 129 129 128 132 135 136 136 136 138 140 140 141 139 123 103 102 103 97 91 85 80 75 70 66 62 61 65 70 70 70 75 80 82 84 88 91 91 92 93 94 97 97 98 102 99 95 95 94
185 188 188 188 187 186 184 181 180 180 180 180 180 178 174 170 166 163 164 162 159 160 163 164 166 171 173 172 172 171 172 170 166 162 161 152 133 131 136 136 137 140 141 141 141 142 145 146 147 143 119 106 105 103 96 89 83 78 71 65 61 59 58 62 68 69 71 73 75 79 81 88 93 94 94 94 94 96 97 98 98 95 93 90 88
189 191 190 189 188 186 184 182 182 182 183 183 183 182 177 173 172 172 171 167 164 167 169 166 166 170 173 171 170 170 170 170 169 169 168 160 142 135 139 143 144 146 147 145 146 148 153 153 153 145 120 109 106 100 91 85 81 75 68 63 60 60 61 63 67 69 71 72 73 77 75 80 90 93 93 93 95 96 97 98 96 94 92 88 86
192 193 192 189 188 186 183 183 183 184 185 186 187 183 178 176 178 181 179 176 175 177 174 168 168 170 172 171 170 171 170 168 168 173 173 165 154 143 141 148 151 151 152 150 152 155 158 161 159 146 123 109 102 92 85 82 80 73 67 64 60 62 66 66 67 68 68 70 73 75 71 73 81 86 90 91 93 94 94 94 92 91 90 88 88
194 193 192 189 188 186 183 183 183 186 188 189 190 185 181 182 185 190 189 188 187 184 180 173 172 172 173 172 171 174 170 166 167 173 176 169 163 153 144 149 156 156 155 155 157 160 164 170 167 150 127 109 98 89 85 83 80 73 69 66 64 66 69 71 70 69 67 66 68 68 66 69 73 77 83 86 87 88 89 90 89 88 87 87 89
196 195 192 190 189 187 186 185 185 187 190 192 191 189 188 189 192 196 195 194 190 186 187 182 178 175 175 175 175 175 170 169 170 171 174 170 165 160 149 149 157 159 158 160 162 163 170 177 173 157 135 114 103 95 91 87 81 75 74 71 69 71 73 73 72 72 70 66 63 60 61 67 71 71 74 79 79 80 82 84 86 87 86 88 91
198 196 192 191 192 192 190 189 190 190 192 193 191 191 192 195 197 199 197 195 191 189 191 188 184 180 179 175 171 173 169 170 172 171 172 169 164 164 155 150 155 160 161 164 165 166 174 181 178 166 144 125 113 104 98 93 84 76 75 73 71 74 75 74 73 73 74 71 67 62 59 61 66 68 70 72 72 74 76 78 81 84 86 88 90
198 196 192 192 194 195 193 192 193 193 194 193 191 191 191 196 199 199 197 194 192 191 193 192 190 186 182 174 169 172 167 168 173 174 170 166 162 162 160 153 154 159 163 166 167 169 177 183 183 174 155 137 124 112 104 96 85 76 75 73 69 71 73 73 72 72 74 76 74 70 65 63 63 64 65 66 68 72 74 75 78 81 83 84 86
196 194 192 191 192 193 193 193 194 194 194 193 192 191 190 194 197 197 196 195 194 193 193 191 191 188 181 178 178 178 175 177 179 177 170 165 161 159 162 157 154 158 164 167 169 172 179 185 186 181 166 149 133 121 112 98 83 74 73 73 67 65 67 67 67 66 66 69 72 73 72 69 67 64 63 63 65 68 71 73 76 78 81 83 83
193 191 190 190 191 193 194 195 196 195 194 193 193 193 192 196 199 198 196 195 195 194 192 192 194 191 185 183 187 188 188 188 184 181 175 168 162 159 162 161 156 157 164 168 170 174 180 187 188 186 176 158 139 127 117 103 87 74 69 69 66 63 62 62 62 60 59 59 61 68 71 71 70 69 69 69 67 65 67 72 74 77 82 82 82
192 190 189 189 192 195 196 197 196 195 195 194 195 196 198 200 200 199 198 195 197 197 193 194 195 195 190 189 193 195 195 190 186 185 182 175 165 160 162 164 160 158 164 168 171 175 181 188 189 188 184 170 144 128 117 103 89 78 71 65 63 62 61 60 59 57 57 55 55 58 62 66 68 71 73 71 71 71 69 71 75 78 82 85 86
192 192 190 190 193 195 196 196 195 193 192 192 195 199 201 202 200 199 200 198 200 199 194 196 196 197 196 194 195 195 193 185 179 182 187 185 171 162 164 167 165 160 165 169 172 177 182 189 190 189 188 182 160 130 117 102 85 75 70 63 59 59 58 58 55 51 48 46 47 49 50 53 59 66 69 70 72 74 73 73 78 82 87 91 92
193 194 193 193 195 195 196 195 194 191 189 191 194 200 202 203 202 199 199 199 203 199 194 199 200 202 200 195 193 191 190 181 176 180 190 194 181 169 169 171 169 164 166 171 174 178 184 190 191 190 190 192 185 145 126 108 83 69 64 56 50 50 52 53 47 40 34 33 34 37 40 43 48 54 60 69 73 73 74 77 82 85 88 92 92
196 196 196 197 198 197 197 195 193 190 188 190 194 201 206 205 203 200 199 200 205 200 195 201 203 203 200 196 193 189 186 181 180 184 192 197 189 180 173 173 173 168 169 173 176 179 186 192 193 193 193 197 196 175 149 125 93 71 57 47 44 43 44 44 38 31 26 26 28 30 33 35 43 52 56 67 75 76 78 81 85 88 89 92 96
200 201 199 199 200 199 198 194 192 190 188 191 195 203 208 209 206 203 201 203 205 201 199 202 204 204 200 197 195 191 186 185 185 187 192 197 196 192 182 176 175 173 172 175 179 181 187 194 195 195 197 199 199 190 171 149 121 85 52 37 44 43 40 35 27 24 23 23 27 30 29 28 33 46 61 77 85 86 87 89 91 94 96 98 99
205 206 204 204 205 203 200 195 193 193 192 194 198 206 211 212 211 208 206 207 208 204 201 203 205 206 201 196 197 196 191 190 190 189 192 195 198 198 192 184 179 179 176 176 180 184 189 195 197 199 199 199 199 197 189 177 157 119 60 31 36 36 34 26 21 22 24 25 29 32 31 29 26 26 40 90 106 107 104 103 103 102 102 101 101
209 210 210 210 212 210 201 197 197 196 197 197 201 207 212 216 216 214 211 211 212 208 204 203 207 208 202 198 199 201 198 196 199 196 192 192 197 197 196 194 186 183 182 179 181 185 191 196 199 201 200 198 199 202 202 199 194 179 104 22 21 20 16 13 21 27 27 29 31 32 31 30 28 22 16 31 118 121 119 120 118 114 112 110 107
212 214 214 214 216 215 206 202 200 200 201 201 204 209 214 218 220 220 216 215 215 210 206 205 208 209 204 200 200 204 205 202 206 206 199 196 200 200 199 199 194 188 186 183 181 185 192 197 201 202 199 199 201 206 211 215 219 217 264 1 7 359 355 1 15 25 26 26 22 21 21 24 26 24 13 1 118 129 126 126 124 124 122 118 114
215 217 217 217 220 217 211 208 205 205 205 205 209 212 217 220 222 224 222 221 219 212 207 205 209 210 205 203 202 205 208 206 210 211 206 204 206 206 204 202 199 194 190 187 183 184 189 194 199 201 199 202 205 210 218 224 224 219 264 349 346 339 339 349 1 8 7 6 7 6 7 12 16 19 13 7 86 128 127 126 125 125 123 117 110
222 224 222 221 223 220 215 213 211 209 208 209 212 215 221 223 223 226 227 227 223 216 209 206 208 209 206 205 205 208 208 207 210 213 211 212 212 211 210 206 202 198 194 190 186 185 188 191 197 200 202 207 209 211 220 225 221 212 214 344 342 335 333 338 342 339 339 346 359 0 360 3 5 5 7 20 106 139 133 127 124 124 119 111 104
228 228 224 223 226 224 219 218 216 214 212 213 215 218 223 226 226 227 231 232 228 222 215 209 208 209 208 207 208 211 210 208 210 212 213 215 217 216 217 213 206 201 198 194 189 188 191 194 198 201 204 208 211 213 220 222 214 204 210 341 349 339 329 324 312 302 312 329 348 356 357 356 353 345 335 219 165 148 132 126 123 121 116 110 106
225 222 220 220 223 225 224 222 220 218 218 218 218 220 224 227 228 228 232 234 233 230 222 213 210 210 209 208 209 212 211 210 211 212 213 216 219 219 219 214 207 202 199 197 193 192 194 197 200 202 205 210 214 214 216 217 210 204 228 311 326 318 306 280 266 269 280 297 322 344 348 348 346 338 332 134 138 135 130 127 125 121 116 113 110
223 219 217 217 218 223 226 226 224 223 223 225 223 222 224 227 228 230 233 235 236 235 226 215 211 211 210 208 210 213 213 212 212 213 215 217 218 217 213 205 199 196 197 196 195 196 197 199 202 205 209 213 214 211 206 207 207 210 235 268 275 279 265 244 243 246 260 269 272 302 320 339 339 335 21 140 136 132 130 128 125 120 116 113 109
221 221 221 219 220 222 226 227 227 227 228 230 229 226 226 227 229 232 234 236 237 236 231 220 213 212 211 210 211 215 216 215 216 215 215 217 215 213 208 198 190 189 192 194 196 198 200 203 206 208 213 215 212 204 200 202 209 217 233 250 252 252 242 230 233 238 245 242 233 243 243 252 314 303 148 149 144 135 131 128 124 118 114 106 99
220 222 224 224 224 224 225 227 227 228 231 233 234 232 229 228 230 233 235 236 236 237 235 225 216 213 212 212 214 217 218 218 220 219 216 216 215 211 208 198 189 188 189 193 196 199 202 204 204 204 208 213 212 204 201 207 213 219 230 240 238 232 227 222 232 233 228 230 223 209 196 208 240 169 155 156 153 144 139 136 133 129 118 98 85
221 223 226 226 226 226 226 227 227 228 231 234 238 237 232 231 232 233 235 237 236 236 235 229 221 217 215 214 217 219 220 221 222 222 218 214 215 213 210 202 193 191 192 193 196 197 199 202 202 201 201 206 211 208 208 213 215 220 228 231 226 217 211 210 219 217 220 233 221 199 190 191 192 167 162 165 164 157 152 150 150 151 135 100 93
225 225 226 224 225 225 225 226 227 229 232 235 238 238 235 233 233 234 234 235 235 235 234 232 226 221 219 218 219 219 220 222 222 222 219 213 213 214 210 204 199 196 196 195 197 197 197 199 202 203 201 200 205 210 211 213 216 221 223 219 213 208 206 206 208 207 217 229 213 210 209 188 185 176 173 178 175 174 172 168 171 181 176 120 125
228 229 226 225 225 224 225 225 226 230 233 236 238 238 237 235 234 234 234 234 234 234 233 233 228 222 222 223 223 221 222 223 220 219 219 214 211 212 209 205 203 201 198 196 199 200 197 197 198 201 203 197 194 204 208 210 217 217 213 211 204 198 200 203 205 205 212 221 216 219 216 193 192 192 188 184 180 183 185 182 181 188 196 202 198
232 232 229 227 227 226 227 226 226 229 232 236 238 238 238 238 236 234 235 236 236 236 235 232 226 222 223 224 225 224 223 223 221 218 217 215 211 210 210 206 205 206 203 200 200 201 201 202 200 200 208 206 197 200 202 208 215 209 201 198 193 197 202 199 198 197 200 217 218 212 211 200 193 198 193 181 177 183 188 188 184 190 202 215 220
237 235 235 233 232 232 233 232 231 231 235 240 242 242 243 243 243 241 240 240 240 241 239 234 227 225 223 222 223 224 222 222 221 219 216 215 212 210 212 210 209 209 208 206 205 207 209 210 207 203 208 212 212 212 207 207 212 211 206 192 185 195 201 194 193 195 194 205 212 209 214 209 194 196 195 180 178 183 187 192 193 201 215 226 239
248 247 245 240 238 239 245 252 253 249 249 251 251 251 250 250 250 249 246 246 245 244 244 240 232 228 225 222 223 222 221 221 220 218 215 216 214 212 214 214 213 216 214 211 211 214 215 214 212 209 208 209 214 220 217 213 212 211 209 198 192 192 186 194 200 201 199 199 207 210 207 203 195 197 199 190 187 186 190 201 209 220 223 224 233
261 268 272 262 257 273 284 279 269 261 256 257 260 260 260 258 255 253 252 251 250 248 246 243 235 228 226 223 222 222 222 221 220 218 215 215 215 216 218 215 214 221 220 215 215 215 216 216 214 213 214 212 212 214 214 216 216 211 208 199 195 191 186 201 204 203 206 198 200 202 191 190 194 198 203 203 198 193 196 205 210 217 226 213 196
289 321 324 300 285 296 292 267 248 248 252 255 261 265 266 265 260 257 256 253 253 251 247 245 238 228 225 222 220 222 223 221 220 218 215 214 214 218 222 217 215 222 222 220 218 214 214 216 216 216 219 220 219 216 212 214 214 216 220 209 193 197 200 205 199 202 212 200 194 195 186 188 194 197 202 206 204 199 199 205 207 206 215 193 171
311 347 9 5 313 298 285 267 255 257 262 265 267 270 271 271 269 264 260 257 255 254 250 250 247 233 224 221 219 221 222 221 221 219 215 213 213 217 222 220 219 223 225 225 222 217 215 215 217 221 223 223 224 222 220 216 209 210 222 219 197 191 195 199 197 196 200 195 195 194 189 193 197 197 201 203 204 204 204 209 208 203 192 140 145
335 20 53 55 20 325 294 274 270 270 272 273 273 273 272 273 275 271 267 266 264 263 260 257 254 242 226 220 219 221 223 224 223 220 215 211 212 216 222 223 224 229 230 228 224 218 215 215 219 222 226 225 222 224 225 221 212 209 215 216 204 191 184 195 200 193 188 192 200 199 194 197 197 197 201 201 201 204 207 206 203 199 184 143 144
15 31 17 5 26 8 312 281 278 280 280 277 272 271 270 270 271 271 274 275 275 274 269 263 257 243 228 221 221 223 225 225 223 219 213 209 211 216 222 225 226 231 232 227 224 220 213 214 219 221 225 228 224 225 227 225 221 215 213 213 209 207 209 220 213 199 197 199 201 200 197 198 196 194 197 199 199 201 200 195 194 196 178 153 157
1 4 334 320 308 280 265 251 270 285 286 280 273 271 270 264 260 264 273 278 281 280 272 268 261 243 231 228 227 227 225 223 220 215 210 208 210 214 220 224 224 226 228 225 223 221 215 215 218 219 223 227 225 224 225 228 230 225 222 219 213 210 213 226 225 210 212 210 203 200 198 196 194 193 194 196 198 198 193 187 189 194 184 166 165
347 295 270 283 276 264 245 240 257 269 275 278 278 277 274 270 265 264 268 274 282 281 273 270 264 247 241 239 234 232 227 221 217 213 209 208 210 213 218 224 226 224 223 224 223 219 217 216 217 221 223 223 222 220 218 222 228 229 231 230 223 216 213 223 229 218 216 217 211 207 203 198 194 191 192 194 197 196 189 185 192 194 189 181 177
48 256 249 242 250 257 256 259 266 271 276 283 286 283 280 279 276 273 273 275 278 274 272 273 265 251 249 248 242 236 229 219 215 213 211 210 212 215 217 222 228 228 224 224 224 219 216 215 216 221 223 221 220 219 216 218 222 225 228 231 232 228 222 227 246 245 240 232 227 220 209 203 196 191 191 192 195 194 188 188 195 195 189 186 190